Погода Усть-Щугор

Погода Усть-Щугор : погода сейчас, прогноз погоды и архив. Всё, что Вы хотите узнать о погоде Усть-Щугор!

Поиск расширенной информации на нашем сайте:

Другие новости

Новости СМИ2

Главная страница сайта

Новости сайта

02.10.2013

Напоминаем, что на нашем новом сайте вы можете получить высокодетализированные прогнозы погоды по пунктам России, СНГ и мира (включающие важные для авиации метеовеличины, такие как направление и скорость ветра, видимость, явления погоды, количество и форма облачности, нижняя и верхняя граница облачности), а также ознакомиться с разнообразными материалами по авиационной метеорологии и подборкой полезных ссылок на эту тему.

Сайт Метеоцентр.Азия посвящён разработке технологий оптимизации авиаметеорологического обслуживания, включая проектирование и перспективное создание нескольких автоматизированных авиаметеорологических систем:
- система выпуска высокодетальных прогностических карт явлений погоды для нижнего воздушного пространства по России и ближнему зарубежью;
- система верификации прогнозов TAF (выпускаемых синоптиками официальных АМСГ РФ и ближнего зарубежья) и AUTOTAF (выпускаемых сайтом Метеоцентр.Азия) - выявление ошибок, онлайн-сопоставление с фактической погодой METAR, автоматическое внесение коррективов в прогнозы при резком отклонении фактической погоды от прогноза, подсчёт оправдываемости прогнозов по элементам и в целом;
- система обработки, анализа и отображения авиаметеорологической информации для применения провайдерами метеорологической информации.


Погода Усть-Щугор - сегодня

Время (UTC), дата Ветер
(°,м/с) 
Видим.   Явления Облачность Т
(°С)
Тd
(°С)
f(%) Тe
(°С)
Pmin
(гПа)
dP
(гПа)
Po
(мм)
O2
(г/м3)
Тmin Tmax R s Состояние
почвы
09 22.05.17 010 (С) 4000 м  слаб. ливневой снег  10/10 500 м кучево-дожд. 
[Cb cap]
+1 -0.5 90 -1  1001.7  1.7  744  299           
12 22.05.17 350 (С) 4000 м  слаб. ливневой снег  10/10 240 м кучево-дожд. 
[Cb cap]
-0.1 -1.1 93 -3  1004.2  2.5  746  301           
15 22.05.17 350 (С) 1000 м  ливневой снег  10/10 540 м кучево-дожд. 
[Cb cap]
-1 -2 93 -4  1006.1  1.8  748  303    +1.4     
03 23.05.17 тихо ()   20000 м    4/4 600 м 
[Cu Sc]
-2.1 -5.8 76 -2  1010.8  0.9  751  306  -6.4    0.3  14  неравномерный
мокрый или
старый снег
100% 
06 23.05.17 160 (Ю) 20000 м    1/1 1000 м 
[Cu hum]
+1.5 -5.8 58 +2  1010.4  -0.3  751  302           
09 23.05.17 200 (Ю) 20000 м    ясно 
+5.1 -6.4 43 +5  1009.1  -1.2  750  297           
12 23.05.17 210 (ЮЗ) 4000 м    3/1 1000 м верхняя 
[Cu hum|Cs]
+7 -6.4 38 +7  1007.6  -1.5  749  295           
15 23.05.17 190 (Ю) 20000 м    10/0 средняя, верхняя 
[Ac As|Cc]
+6.3 -5.9 41 +7  1006.1  -1.4  748  295    +7.3       
03 24.05.17 тихо ()   10 км    10/10 660 м кучево-дожд. 
[Cb cap]
+2.8 -2.4 69 +3  1001.1  -0.6  744  297  -2.2      12  неравномерный
мокрый или
старый снег
100% 
06 24.05.17 200 (Ю) 20000 м    10/10 600 м кучево-дожд., верхняя 
[Cb cap|Ac lent|Cc]
+5.8 +1.2 72 +5  1000.7  -0.3  744  293           
09 24.05.17 240 (ЮЗ) 10 км  слаб. ливневой дождь  9/6 1320 м кучево-дожд., верхняя 
[Cb cap|Cc]
+7.2 +0.7 63 +7  1000.5  0.1  744  292           
12 24.05.17 350 (С) 6-11{11}  4000 м  слаб. ливневой снег  10/10 630 м кучево-дожд. 
[Cb cap]
+0.5 -0.7 92 -3  1004.5  3.7  747  300           
15 24.05.17 260 (З) 1{11}  20000 м  {ливн. осадки}  9/8 1000 м кучево-дожд., средняя 
[Cb cap|Ac As]
+0.9 -0.1 93 +2  1007  2.5  748  301    +8.6     
03 25.05.17 330 (СЗ) 4000 м  слаб. крупа{ливн. осадки}  10/8 720 м кучево-дожд., средняя, верхняя 
[Cb cap|Ac As|Ci fib]
+0.8 -3 76 -1  1011.1  1.5  751  302  -1.3      мокрый или
старый снег
50-90% 
06 25.05.17 340 (С) 4000 м  слаб. крупа{ливн. осадки}  10/10 1200 м кучево-дожд. 
[Cb cap]
+1.9 -3.7 66 1012.7  1.7  753  302           
09 25.05.17 290 (З) 20000 м  {ливн. осадки}  9/8 870 м кучево-дожд., средняя 
[Cb cap|Ac As]
+3.9 -6.5 47 +2  1014.1  1.4  754  300           
12 25.05.17 300 (СЗ) 20000 м  {ливн. осадки}  9/9 700 м кучево-дожд. 
[Cb cap]
+4.9 -6.8 42 +3  1015.1  755  299           
15 25.05.17 290 (З) 20000 м    6/4 1000 м кучево-дожд., средняя 
[Cb cap|Ac As]
+5.6 -6.4 42 +4  1015.1  0.1  755  299    +5.9  0.0     
03 26.05.17 190 (Ю) 20000 м    10/0 средняя 
[Ac As]
+7.8 -3.8 44 +7  1008.2  -3.2  749  294  -3      мокрый или
старый снег
50-90% 
06 26.05.17 150 (ЮВ) 20000 м    10/0 средняя 
[Ac As]
+9.2 -3.4 41 +8  1004.9  -3.1  747  292           
09 26.05.17 140 (ЮВ) 6{11}  4000 м  ливневой дождь  10/8 750 м кучево-дожд., средняя 
[Cb cap|As op]
+5.7 +2.5 80 +3  1003.2  -1.8  746  294           
12 26.05.17 160 (Ю) 4{11}  10 км  слаб. ливневой дождь  10/10 600 м кучево-дожд. 
[Cb cap]
+5.1 +3.2 88 +3  1000  -3.2  743  294           
06 29.05.17 280 (З) 20000 м    10/8 930 м кучево-дожд., средняя 
[Cb cap|Ac As]
+2.6 -4.7 59 +1  1008.1  -0.2  749  300           
09 29.05.17 340 (С) 20000 м    10/8 1050 м кучево-дожд., средняя 
[Cb cap|Ac As]
+3.3 -5.8 51 +2  1007.9  0.1  749  299           
12 29.05.17 230 (ЮЗ) 20000 м    9/8 960 м кучево-дожд., средняя 
[Cb cap|Ac As]
+4.5 -6.1 46 +4  1007.8  0.1  749  298           
Время (UTC), дата Ветер
(°,м/с) 
Видим.   Явления Облачность Т
(°С)
Тd
(°С)
f(%) Тe
(°С)
Pmin
(гПа)
dP
(гПа)
Po
(мм)
O2
(г/м3)
Тmin Tmax R s Состояние
почвы

Для получения пояснительной информации подведите курсор к названию столбца.

ПОГОДА Усть-Щугор - архив

Всё, что Вы хотите узнать о погоде Усть-Щугор - удобно и подробно!

Выберите нужную дату (начиная с 1 января 2015* года) и нажмите кнопку "Найти".
Будут отображены архивные сводки погоды по пункту Усть-Щугор, начиная с указанной даты.


Отображать данные в формате CSV (для использования в таблицах Excel)


Внимание! Наш архив погоды предназначен исключительно для личного некоммерческого использования в познавательных целях. Если Вам необходимы официальные справки о состоянии погоды (для производственных, юридических, коммерческих и т.п. целей), обращайтесь в органы Росгидромета.

*Примечание: данная дата относится к архиву по метеостанциям СССР (Россия, СНГ, Балтия).
Архив по метеостанциям Зарубежной Европы и Азии (кроме Китая) хранится 10 дней, по другим регионам земного шара (Китай, Африка, Америка, Австралия, Океания) - 1 день.

Усть-Щугор - район местоположения метеостанции


Название, широта, долгота, высота метеостанции:
Усть-Щугор 64.3°ш. 57.6°д. 75 м над ур. моря [Российская Федерация]

Дополнительная информация

В oтличие oт бoльшинства пoгoдных сайтoв мы публикуем пoдрoбную метеoинфoрмацию в детальнoм прoфессиoнальнoм фoрмате.

Характеристики температуры и влажнoсти вoздуха измеряются на высoте 2 м в тени вдали oт зданий и деревьев.
Скoрoсть ветра измеряется на высoте 10 м (на урoвне рoста челoвека скoрoсть ветра ниже в 1.5-2 раза). Если метеoстанция нахoдится в гoрoде или в лесу, тo скoрoсть ветра занижена на 2-4 м/с пo сравнению с oткрытым местoм. Скoрoсть ветра над акватoриями крупных рек и oзёр, а также на вершинах хoлмoв на 2-5 м/с выше, чем в oбычных услoвиях.
Атмoсфернoе давление в разных тoчках местнoсти мoжет значительнo oтличаться oт давления на метеoстанции, в зависимoсти oт услoвий рельефа (при пoдъёме на 10 м давление пoнижается примернo на 1 мм рт.ст.).